Temperature
14 14 14 14 13 13 13 13 13 12 11 11 11 11 11 11 11 11 11 10 10 10 10 10 10 10 10 10 10 10 10 10 9 9 9 9 9 9
14 14 14 13 13 13 13 13 12 12 12 11 11 11 11 11 11 10 10 10 10 10 10 10 10 10 10 10 10 10 9 9 9 9 9 9 9 9
14 14 13 13 13 13 13 13 12 12 12 11 11 11 11 10 10 10 10 10 10 10 10 10 10 10 10 10 9 9 9 9 9 9 9 9 8 8
14 13 13 13 13 13 13 13 12 12 12 12 11 11 11 10 10 10 10 10 10 10 10 9 9 9 9 9 9 9 9 9 9 8 8 8 8 8
13 13 13 13 13 13 13 12 12 12 12 11 11 11 10 10 10 10 10 10 10 9 9 9 9 9 9 9 8 8 8 8 8 8 8 8 8 7
13 13 13 13 13 13 12 12 12 12 11 11 11 11 10 10 10 10 10 10 9 9 9 9 9 9 9 8 8 8 8 8 8 8 7 7 7 7
13 13 13 13 12 12 12 12 12 12 11 11 11 11 11 10 10 10 10 9 9 9 9 9 9 8 8 8 8 8 8 8 7 7 7 7 7 7
13 13 13 12 12 12 12 12 12 11 11 11 11 11 10 10 10 10 10 9 9 9 9 8 8 8 8 8 8 8 7 7 7 7 7 7 6 6
13 13 13 12 12 12 12 11 11 11 11 11 11 11 10 10 10 10 9 9 9 9 8 9 8 8 8 8 7 7 7 7 7 7 6 6 6 6
13 12 12 12 12 12 11 11 11 11 11 11 10 10 10 10 9 9 9 9 9 8 8 8 8 8 8 8 7 7 7 7 6 6 6 6 6 6
12 12 12 12 12 11 11 11 11 11 10 10 10 10 10 10 9 9 9 9 9 8 8 8 8 8 8 7 7 7 6 6 6 6 6 5 5 5
12 12 12 11 11 11 11 11 11 10 10 10 10 10 9 9 9 9 9 8 8 8 8 7 7 7 7 7 7 6 6 6 6 5 5 5 5 5
12 12 11 11 11 11 11 11 10 10 10 10 10 9 9 9 9 9 8 8 8 7 7 7 7 6 6 6 6 6 6 5 5 5 5 5 4 4
11 11 11 11 11 11 10 10 10 10 10 9 9 9 9 9 8 8 8 8 7 7 7 6 6 6 6 6 6 6 5 5 5 4 4 4 4 4
11 11 11 10 10 10 10 10 10 9 9 9 9 9 9 8 8 8 8 7 7 7 6 6 6 6 5 5 5 5 5 5 4 4 4 4 4 3
10 10 10 10 10 10 10 10 9 9 9 9 9 9 8 8 8 8 7 7 7 7 6 6 6 5 5 5 4 4 4 4 4 4 4 3 3 3
10 10 10 10 10 10 10 9 9 9 9 9 8 8 8 8 7 7 7 7 7 6 6 6 5 5 5 4 4 4 4 4 3 3 3 3 3 3
10 10 10 10 9 9 9 9 9 9 8 8 8 8 7 7 7 7 7 6 6 6 6 5 5 5 5 4 4 4 4 3 3 3 3 2 3 3
9 9 9 9 9 9 9 9 9 8 8 8 8 7 7 7 7 6 6 6 6 5 5 5 4 4 3 3 4 4 3 3 3 3 3 2 2 2
9 9 9 9 9 9 8 8 8 8 8 7 7 7 7 7 6 6 6 5 5 5 5 4 4 4 3 3 3 3 3 2 2 2 2 2 2 2
9 9 8 8 8 8 8 8 8 8 7 7 7 7 6 6 6 6 5 5 5 4 4 4 4 3 3 3 2 3 3 2 2 1 1 1 1 1
9 8 8 8 8 8 8 7 7 7 7 7 7 6 6 6 6 5 5 5 4 4 4 4 3 3 3 2 2 2 2 2 2 1 1 0 -0 -0
9 8 8 8 7 7 7 7 7 7 6 6 6 6 6 5 5 5 5 4 4 4 3 3 3 3 2 2 2 2 1 1 1 1 1 0 -0 -0
Wind_Speed
3 3 2 2 2 2 3 4 4 2 1 1 1 3 3 4 5 6 6 7 7 7 8 8 9 9 8 9 9 9 9 9 10 10 10 10 10 10
2 3 3 2 2 2 2 2 2 4 2 1 1 1 2 3 4 5 4 5 6 6 6 6 6 6 7 7 7 7 7 8 8 8 9 9 9 9
2 3 2 2 2 2 2 3 2 3 3 1 0 1 2 2 3 3 4 4 4 5 5 5 5 5 5 5 5 5 6 6 7 7 8 8 9 8
2 3 2 2 3 2 2 3 2 2 3 3 0 0 0 1 1 2 3 3 3 4 3 3 4 4 4 4 4 4 4 5 5 6 7 7 8 8
3 3 3 3 3 2 2 2 2 2 2 3 1 0 0 1 1 1 2 3 2 3 3 3 3 4 4 4 4 4 4 4 5 5 6 7 7 8
2 2 3 4 4 4 3 3 3 3 3 3 2 1 0 0 1 0 1 2 2 3 3 3 3 4 4 4 4 4 4 4 4 5 5 6 6 7
1 1 2 4 5 5 4 4 4 4 3 2 2 1 0 0 1 1 1 1 2 2 2 3 4 4 5 5 5 5 4 4 5 5 5 5 6 7
2 1 1 2 3 4 5 7 7 6 5 4 3 3 3 3 2 2 1 0 2 2 1 2 2 3 5 5 6 6 6 6 5 5 5 5 6 7
3 2 1 2 3 2 3 4 4 5 6 6 5 5 4 5 4 3 3 3 3 2 1 2 2 2 5 5 6 6 6 6 5 5 5 6 7 7
3 3 2 2 3 4 3 2 1 1 3 4 4 4 4 4 5 4 4 2 1 1 1 2 2 2 3 5 5 5 5 5 5 6 6 7 7 8
2 2 3 3 5 6 5 4 2 2 2 3 4 3 3 3 5 3 2 1 2 2 1 1 2 2 2 3 5 5 5 5 5 6 7 8 8 8
1 2 4 4 5 7 5 5 4 4 2 1 1 0 0 2 4 4 4 3 1 2 2 2 1 1 2 2 3 5 5 5 6 7 8 9 9 7
2 2 3 5 5 6 6 5 6 4 2 2 1 0 0 0 1 3 4 3 3 3 2 3 1 1 2 2 3 3 4 4 5 6 8 9 8 6
4 4 3 5 5 5 4 5 5 4 2 2 1 1 2 2 2 2 4 4 4 4 3 4 2 2 2 2 3 3 4 5 4 5 7 9 9 9
4 6 5 5 4 3 4 5 4 2 2 2 3 3 3 2 1 1 1 2 2 3 3 3 3 2 3 3 3 3 3 3 4 5 5 6 6 6
3 3 3 3 2 2 2 2 2 3 3 3 3 2 1 1 1 1 1 1 1 3 3 3 4 3 3 4 4 4 4 3 4 4 5 6 7 7
3 1 1 1 1 1 1 1 1 2 2 2 2 2 2 2 2 2 1 1 2 3 3 2 3 4 5 4 4 6 5 5 5 5 4 5 6 8
4 2 2 3 3 3 3 2 2 3 3 3 3 3 3 3 3 2 2 2 3 4 4 3 1 1 2 4 7 6 5 6 5 5 4 5 7 7
4 3 4 4 4 4 4 4 4 3 3 3 3 3 3 3 3 3 3 3 4 4 4 3 2 2 4 6 5 6 5 5 4 4 5 5 7 8
4 4 4 4 4 4 4 4 3 3 3 3 3 3 4 4 4 4 4 4 4 4 4 3 4 5 6 6 5 4 7 6 5 6 5 5 6 9
4 4 4 4 4 4 4 3 3 3 3 3 3 4 4 4 4 4 4 5 5 4 5 6 6 6 4 2 4 5 5 7 7 5 5 5 6 5
4 4 4 4 4 3 3 3 2 2 3 3 3 3 3 4 4 5 4 4 5 5 6 5 4 2 3 4 7 7 6 6 7 9 9 7 4 4
4 4 4 3 3 3 3 3 3 3 3 3 3 3 3 3 4 4 4 4 4 4 4 4 3 3 4 5 6 7 8 7 5 5 6 10 12 14
Wind_Direction
105 107 105 100 106 122 138 145 147 152 255 300 333 354 24 50 52 60 57 58 56 57 59 55 53 50 47 43 39 38 38 38 37 35 33 32 30 30
106 103 96 96 95 101 120 118 131 150 165 229 251 310 28 56 54 63 53 50 51 54 53 51 49 46 44 40 38 37 38 38 35 30 25 22 20 20
100 113 113 114 113 109 110 109 111 125 146 198 330 5 46 41 41 51 46 44 33 40 39 39 40 37 32 29 30 31 31 31 27 24 21 17 15 11
132 126 133 128 119 116 120 125 134 131 145 161 196 21 29 4 16 30 24 20 17 18 22 26 23 18 16 13 14 17 17 16 14 14 13 8 5 4
155 155 161 144 142 137 135 136 135 123 122 145 162 127 6 26 31 9 12 0 355 354 358 356 358 360 357 356 354 352 353 355 357 359 359 359 359 359
155 169 171 169 172 163 156 156 140 123 118 128 140 128 261 327 88 333 329 331 329 348 345 335 334 338 336 336 336 336 335 335 338 341 343 347 350 349
147 183 189 179 177 176 172 169 154 143 137 142 157 145 211 205 228 222 237 305 305 328 330 330 328 325 319 314 315 318 320 319 318 320 326 331 336 337
166 187 190 174 176 170 169 170 167 164 170 171 184 196 220 216 200 187 179 82 295 302 299 302 319 304 298 299 306 308 306 304 303 306 312 317 321 323
172 168 180 173 163 153 151 152 169 179 178 176 186 206 207 209 186 188 197 199 230 264 170 278 298 294 293 298 310 308 303 300 300 301 305 310 313 313
184 187 184 203 184 163 152 148 182 208 197 189 197 213 209 194 185 194 201 205 262 289 163 255 286 282 305 305 312 315 305 301 303 307 309 308 309 307
211 196 191 209 199 174 161 172 202 257 213 192 200 211 212 194 171 134 132 133 268 270 198 222 273 293 300 304 308 319 314 303 305 309 311 311 306 305
214 221 212 207 202 184 176 180 203 235 212 166 175 250 209 188 178 175 180 177 207 263 229 203 252 299 306 299 314 317 321 314 309 307 309 310 308 306
204 233 230 207 201 195 189 193 209 199 185 180 187 267 360 258 212 208 194 182 192 234 221 180 203 215 244 289 309 311 312 314 313 307 307 308 306 301
210 220 215 198 199 199 194 197 193 178 166 167 187 226 235 244 249 231 222 219 223 237 229 185 191 200 214 264 281 302 307 303 302 301 305 307 303 298
214 202 195 190 188 200 201 189 175 169 172 189 216 233 234 237 230 232 246 236 272 282 264 226 208 206 206 231 256 278 297 296 291 297 300 295 291 297
207 186 175 175 167 178 188 188 180 185 188 206 219 232 218 202 224 221 226 227 271 292 292 262 236 212 231 244 247 267 270 283 304 300 296 291 292 287
157 122 129 145 167 196 204 206 194 189 204 208 210 225 231 230 240 225 211 200 224 264 284 289 276 252 243 234 250 262 269 274 280 291 290 293 288 286
155 172 197 201 206 210 210 219 216 216 217 212 214 219 226 230 242 233 210 212 235 252 263 274 295 320 307 269 234 250 264 271 280 281 270 283 289 292
173 197 208 212 216 212 213 217 225 223 209 206 215 222 224 228 231 232 227 230 243 251 259 255 238 236 273 285 270 233 252 273 282 279 271 269 278 290
197 203 213 215 216 219 220 220 222 215 209 215 220 224 221 222 227 233 232 234 244 254 263 255 240 236 242 262 272 273 256 256 266 276 280 276 276 286
205 207 211 212 216 219 224 221 214 218 218 213 221 224 222 220 230 234 238 241 244 253 261 263 257 257 256 266 279 284 279 267 264 273 280 286 294 293
203 206 210 211 211 213 217 216 214 224 225 223 228 230 228 226 234 239 241 245 250 255 263 273 278 262 239 252 267 278 286 291 290 282 277 267 276 280
204 204 204 205 207 205 206 213 217 228 228 225 231 240 237 235 237 239 244 248 254 261 271 280 283 268 262 261 269 277 282 288 294 294 288 289 283 281
Height
1559 1559 1559 1559 1559 1560 1560 1561 1561 1561 1561 1562 1562 1562 1561 1561 1560 1559 1558 1558 1557 1556 1555 1554 1553 1552 1551 1550 1549 1547 1546 1544 1543 1541 1540 1538 1537 1536
1558 1558 1559 1559 1559 1559 1559 1559 1560 1560 1560 1561 1561 1561 1561 1561 1560 1559 1559 1558 1557 1556 1555 1554 1553 1552 1551 1550 1548 1547 1545 1544 1543 1541 1540 1539 1537 1536
1558 1558 1558 1558 1559 1559 1559 1559 1559 1560 1559 1560 1561 1561 1561 1560 1560 1559 1559 1558 1557 1556 1555 1554 1553 1552 1550 1549 1548 1546 1545 1544 1542 1541 1540 1538 1537 1536
1557 1557 1557 1558 1558 1558 1558 1558 1558 1559 1559 1559 1560 1560 1560 1560 1560 1559 1558 1557 1557 1556 1555 1554 1552 1551 1550 1549 1547 1546 1545 1543 1542 1541 1539 1538 1536 1535
1556 1556 1556 1557 1557 1557 1557 1557 1557 1558 1558 1558 1558 1559 1559 1559 1559 1558 1558 1557 1556 1555 1554 1553 1552 1551 1549 1548 1547 1545 1544 1543 1541 1540 1538 1537 1536 1534
1555 1555 1555 1556 1556 1556 1556 1556 1556 1557 1557 1557 1557 1557 1558 1558 1557 1557 1556 1556 1555 1554 1553 1552 1551 1550 1548 1547 1546 1544 1543 1542 1540 1539 1537 1536 1534 1532
1553 1554 1554 1554 1555 1555 1555 1555 1555 1555 1556 1556 1556 1556 1556 1556 1556 1555 1555 1554 1554 1553 1552 1551 1550 1548 1547 1546 1544 1543 1542 1540 1538 1537 1535 1534 1532 1530
1552 1552 1553 1553 1553 1553 1554 1554 1554 1554 1554 1554 1554 1554 1554 1554 1554 1554 1553 1552 1552 1552 1550 1549 1548 1546 1545 1544 1543 1541 1540 1538 1536 1535 1533 1532 1530 1528
1550 1551 1551 1551 1551 1552 1552 1552 1552 1552 1553 1553 1552 1552 1552 1552 1552 1551 1551 1550 1549 1549 1548 1546 1545 1544 1543 1541 1540 1539 1537 1536 1534 1532 1531 1529 1527 1525
1548 1549 1549 1549 1550 1550 1550 1550 1550 1550 1550 1550 1550 1550 1550 1550 1550 1549 1549 1548 1547 1546 1545 1543 1542 1541 1540 1539 1537 1536 1534 1533 1531 1529 1528 1526 1524 1522
1545 1546 1547 1547 1547 1547 1547 1547 1547 1547 1547 1547 1547 1547 1547 1547 1547 1546 1546 1545 1543 1543 1542 1540 1539 1538 1537 1536 1534 1533 1531 1530 1528 1526 1525 1523 1521 1519
1542 1543 1544 1544 1544 1545 1544 1545 1544 1545 1545 1544 1544 1544 1544 1544 1543 1543 1542 1542 1540 1540 1539 1538 1536 1535 1533 1532 1531 1530 1528 1527 1525 1523 1521 1519 1517 1515
1539 1540 1541 1541 1541 1542 1542 1541 1541 1542 1542 1541 1541 1541 1541 1540 1540 1539 1539 1539 1538 1536 1536 1535 1533 1532 1531 1529 1527 1526 1525 1523 1521 1519 1517 1515 1513 1510
1536 1537 1538 1538 1538 1538 1538 1538 1538 1538 1538 1538 1537 1537 1537 1537 1536 1536 1535 1535 1534 1534 1533 1532 1530 1529 1527 1525 1523 1522 1521 1519 1517 1515 1513 1510 1508 1506
1533 1534 1534 1534 1534 1535 1535 1535 1535 1535 1534 1534 1533 1533 1533 1533 1533 1532 1532 1531 1530 1529 1529 1527 1526 1525 1523 1521 1519 1518 1516 1514 1512 1510 1508 1506 1503 1501
1530 1530 1530 1530 1531 1531 1531 1531 1531 1531 1531 1530 1530 1530 1529 1529 1528 1528 1527 1527 1526 1525 1524 1523 1522 1520 1518 1517 1515 1513 1512 1510 1508 1506 1503 1501 1499 1496
1526 1526 1526 1526 1526 1527 1527 1528 1528 1527 1527 1526 1526 1525 1525 1525 1524 1524 1523 1522 1521 1520 1519 1518 1517 1516 1514 1512 1510 1508 1506 1505 1503 1501 1498 1495 1493 1491
1522 1521 1522 1522 1522 1523 1523 1523 1523 1523 1523 1523 1522 1521 1521 1520 1520 1519 1518 1517 1516 1515 1514 1513 1512 1510 1509 1506 1506 1503 1501 1499 1498 1496 1493 1490 1487 1486
1517 1517 1517 1518 1518 1519 1519 1519 1519 1519 1519 1518 1518 1517 1517 1516 1515 1515 1514 1513 1511 1510 1509 1508 1507 1505 1503 1500 1499 1499 1496 1494 1492 1490 1488 1485 1481 1479
1512 1513 1513 1513 1514 1514 1514 1514 1514 1514 1514 1514 1514 1513 1512 1512 1511 1510 1509 1508 1507 1505 1504 1503 1502 1500 1498 1496 1493 1492 1491 1489 1487 1484 1482 1479 1476 1474
1507 1508 1509 1509 1510 1510 1510 1510 1510 1510 1510 1510 1509 1509 1508 1507 1506 1505 1504 1503 1502 1500 1498 1497 1496 1495 1493 1491 1488 1485 1485 1484 1482 1479 1476 1473 1469 1467
1503 1504 1505 1505 1505 1506 1506 1505 1505 1505 1505 1505 1504 1504 1503 1502 1501 1500 1499 1498 1497 1495 1494 1492 1491 1490 1488 1485 1482 1480 1478 1477 1476 1474 1471 1469 1466 1461
1499 1499 1500 1501 1501 1501 1501 1501 1501 1500 1500 1500 1499 1499 1498 1497 1496 1495 1494 1493 1491 1490 1489 1487 1486 1484 1482 1480 1477 1475 1473 1471 1469 1467 1465 1463 1461 1459